Regional Weather Roundup
Issued by NWS

Home | Current Version | Previous Version | Graphics & Text | Print | Product List | Glossary On
Versions: 1 2 3 4 5 6 7 8 9 10 11 12 13 14 15 16 17 18 19 20 21 22 23 24 25 26 27 28 29 30 31 32 33 34 35 36 37 38 39 40 41 42 43 44 45 46 47 48 49 50
185
ASUS43 KOAX 221702
RWRNE

WEATHER ROUNDUP FOR NEBRASKA
NATIONAL WEATHER SERVICE OMAHA NE
1100 AM CST THU FEB 22 2018

NOTES: SATELLITE DATA IS BEING USED TO AUGMENT CLOUD COVER ABOVE
       12000 FEET.
       "FAIR" INDICATES FEW OR NO CLOUDS BELOW 12,000 FEET WITH NO
       SIGNIFICANT WEATHER AND/OR OBSTRUCTIONS TO VISIBILITY.


NEZ001>004-019>022-054>056-221800-
NEBRASKA PANHANDLE

CITY           SKY/WX    TMP DP  RH WIND       PRES   REMARKS
SCOTTSBLUFF    LGT SNOW  19  15  84 E7        30.09F FOG     WCI  10
ALLIANCE       LGT SNOW  18  15  88 S13       30.09F FOG     WCI   5
CHADRON        CLOUDY    13   6  74 SE3       30.14R
GORDON         LGT SNOW  21  16  80 S7        30.13S WCI  12
KIMBALL        CLOUDY    18  11  77 S9        30.02F WCI   6
SIDNEY         CLOUDY    22  10  60 S10       30.07F WCI  11
$$

NEZ057>060-069>072-079>082-221800-
SOUTHWEST NEBRASKA

CITY           SKY/WX    TMP DP  RH WIND       PRES   REMARKS
NORTH PLATTE   CLOUDY    21  15  78 S3        30.22F
IMPERIAL       CLOUDY    22  13  68 S9        30.15F WCI  12
LEXINGTON      CLOUDY    23  19  86 S6        30.25F FOG     WCI  16
MCCOOK         CLOUDY    22  16  78 E5        30.21F WCI  16
OGALLALA       LGT SNOW  21  15  78 SE8       30.17F WCI  12
$$

NEZ005>010-023>029-035>040-094-221800-
NORTH CENTRAL NEBRASKA

CITY           SKY/WX    TMP DP  RH WIND       PRES   REMARKS
VALENTINE      LGT SNOW  23  18  81 S8        30.23F VSB 3/4 WCI  14
AINSWORTH      LGT SNOW  21  19  94 S8        30.25F VSB 3/4 WCI  11
BROKEN BOW     LGT SNOW  21  18  88 SE6       30.25F FOG     WCI  13
O`NEILL        SNOW      22  20  95 CALM      30.32F VSB 1/2
ORD            SNOW      21  19  92 SE8       30.30S VSB 1/2 WCI  11
THEDFORD         N/A     21  17  84 S6        30.21F WCI  14
$$

NEZ041-046>049-061>064-073>077-083>087-221800-
SOUTH CENTRAL NEBRASKA

CITY           SKY/WX    TMP DP  RH WIND       PRES   REMARKS
GRAND ISLAND   CLOUDY    22  18  85 SE7       30.31F WCI  13
AURORA         CLOUDY    23  20  90 SE7       30.30F WCI  14
HASTINGS       CLOUDY    23  19  85 SE9       30.30F WCI  13
HEBRON         CLOUDY    25  24  93 E5        30.31F FOG     WCI  20
HOLDREGE       CLOUDY    22  20  92 CALM      30.24F
KEARNEY        FLURRIES  23  20  88 E5        30.27F WCI  17
YORK           MOSUNNY   23  23 100 SE5       30.33F WCI  17
$$

NEZ011>018-030>034-042>045-221800-
NORTHEAST NEBRASKA

CITY           SKY/WX    TMP DP  RH WIND       PRES   REMARKS
NORFOLK        CLOUDY    24  20  84 SE12      30.33F WCI  13
ALBION         CLOUDY    24  20  86 SE10      30.34S WCI  13
BLAIR          CLOUDY    27  23  86 SE7       30.38S WCI  19
COLUMBUS       CLOUDY    23  20  88 SE8       30.37F WCI  14
FREMONT        CLOUDY    25  22  87 E7        30.40S WCI  17
TEKAMAH        CLOUDY    26  21  81 SE8       30.41R WCI  18
WAYNE          CLOUDY    24  22  91 SE10      30.38F WCI  14
$$

NEZ050>053-065>068-078-088>093-221800-
SOUTHEAST NEBRASKA

CITY           SKY/WX    TMP DP  RH WIND       PRES   REMARKS
LINCOLN        CLOUDY    25  22  88 SE6       30.38F FOG     WCI  18
OMAHA EPPLEY   FLURRIES  27  22  81 SE9       30.41F WCI  18
BEATRICE       CLOUDY    28  27  95 E5        30.34F FOG     WCI  23
FALLS CITY     CLOUDY    28  26  92 SE6       30.39R WCI  22
NEBRASKA CITY  CLOUDY    29  29 100 SE8       30.37F FOG     WCI  21
PLATTSMOUTH    LGT SNOW  27  25  93 E7        30.38S WCI  19
$$

NEZ044-045-051>053-067-221800-
OMAHA AREA

CITY           SKY/WX    TMP DP  RH WIND       PRES   REMARKS
OMAHA EPPLEY   FLURRIES  27  22  81 SE9       30.41F WCI  18
BLAIR          CLOUDY    27  23  86 SE7       30.38S WCI  19
FREMONT        CLOUDY    25  22  87 E7        30.40S WCI  17
MILLARD        LGT SNOW  28  24  84 SE8       30.40S WCI  20
OFFUTT AFB     LGTSLEET  27  23  85 SE8       30.39F FOG     WCI  18
PLATTSMOUTH    LGT SNOW  27  25  93 E7        30.38S WCI  19
WAHOO          CLOUDY    26  23  88 SE9       30.39S FOG     WCI  16
$$




USA.gov is the U.S. government's official web portal to all federal, state and local government web resources and services.